FW3304 Weather Reports


Display with metric or nautical units.
time (UTC)temp
F
wind
direction
speed
MPH
gust
MPH
rain 1hr
in
rain 24hr
in
rain mn
in
humidity
%
barometer
mb
20260510230100 70 6 1.0 4.0 0.00 0.00 0.00 66 1016.1
20260510230020 70 27 3.0 13.0 0.00 0.00 0.00 66 1018.1
20260510224607 70 3 3.0 12.0 0.00 0.00 0.00 65 1016.0
20260510223115 71 12 5.0 10.0 0.00 0.00 0.00 66 1015.8
20260510223015 71 13 4.0 13.0 0.00 0.00 0.00 66 1017.8
20260510221556 71 17 2.0 9.0 0.00 0.00 0.00 66 1015.7
20260510220056 72 345 3.0 10.0 0.00 0.00 0.00 67 1015.6
20260510220035 72 20 6.0 18.0 0.00 0.00 0.00 66 1017.4
20260510214601 72 345 7.0 11.0 0.00 0.00 0.00 66 1015.6
20260510213102 73 359 5.0 9.0 0.00 0.00 0.00 68 1015.4
20260510213015 73 29 8.0 18.0 0.00 0.00 0.00 68 1017.4
20260510211654 74 32 8.0 16.0 0.00 0.00 0.00 69 1015.4
20260510210050 79 57 8.0 15.0 0.00 0.00 0.00 64 1015.1
20260510210018 79 348 4.0 16.0 0.00 0.00 0.00 64 1017.3
20260510204555 80 328 2.0 9.0 0.00 0.00 0.00 58 1015.1
20260510203047 80 359 3.0 8.0 0.00 0.00 0.00 56 1015.2
20260510203037 80 327 3.0 9.0 0.00 0.00 0.00 57 1017.3
20260510201545 80 212 3.0 7.0 0.00 0.00 0.00 55 1015.2
20260510200045 80 337 2.0 8.0 0.00 0.00 0.00 59 1015.4
20260510200017 80 316 2.0 9.0 0.00 0.00 0.00 59 1017.7
20260510194542 78 342 1.0 4.0 0.00 0.00 0.00 60 1015.5
20260510193039 78 340 3.0 7.0 0.00 0.00 0.00 60 1015.5
20260510193022 78 334 2.0 9.0 0.00 0.00 0.00 60 1017.7
20260510191540 78 359 3.0 5.0 0.00 0.00 0.00 59 1015.4
20260510190038 79 355 3.0 8.0 0.00 0.00 0.00 62 1015.5
20260510190015 79 346 2.0 9.0 0.00 0.00 0.00 59 1017.5
20260510184537 78 347 1.0 5.0 0.00 0.00 0.00 61 1015.5
20260510183035 78 346 3.0 7.0 0.00 0.00 0.00 59 1015.4
20260510183017 78 334 2.0 12.0 0.00 0.00 0.00 60 1017.6
20260510181536 78 24 3.0 7.0 0.00 0.00 0.00 61 1015.4
20260510180031 77 295 2.0 7.0 0.00 0.00 0.00 63 1015.4
20260510180016 77 358 4.0 13.0 0.00 0.00 0.00 64 1017.6
20260510174529 77 358 2.0 9.0 0.00 0.00 0.00 63 1015.6
20260510173035 77 11 3.0 12.0 0.00 0.00 0.00 63 1015.9
20260510173017 77 343 5.0 13.0 0.00 0.00 0.00 63 1018.0
20260510171529 78 339 6.0 11.0 0.00 0.00 0.00 61 1015.8
20260510170037 79 340 3.0 10.0 0.00 0.00 0.00 62 1018.1
20260510170024 79 352 3.0 9.0 0.00 0.00 0.00 62 1015.8
20260510164521 79 316 2.0 6.0 0.00 0.00 0.00 57 1015.8
20260510163020 79 290 4.0 7.0 0.00 0.00 0.00 55 1015.8
20260510163016 79 301 3.0 14.0 0.00 0.00 0.00 55 1017.9
20260510161519 78 300 2.0 7.0 0.00 0.00 0.00 57 1015.8
20260510160021 77 265 4.0 14.0 0.00 0.00 0.00 57 1017.7
20260510160015 77 290 3.0 8.0 0.00 0.00 0.00 57 1015.7
20260510154510 76 292 5.0 13.0 0.00 0.00 0.00 57 1015.5
20260510153020 76 202 4.0 9.0 0.00 0.00 0.00 59 1015.3
20260510153016 76 224 3.0 10.0 0.00 0.00 0.00 61 1017.4
20260510151503 75 251 4.0 8.0 0.00 0.00 0.00 62 1015.2
20260510150016 74 193 2.0 7.0 0.00 0.00 0.00 66 1017.2
20260510144557 73 185 4.0 7.0 0.00 0.00 0.00 69 1015.0
20260510143052 71 192 2.0 5.0 0.00 0.00 0.00 73 1015.0
20260510143016 71 190 2.0 5.0 0.00 0.00 0.00 73 1017.2
20260510141550 69 189 2.0 5.0 0.00 0.00 0.00 75 1015.0
20260510140044 68 193 1.0 4.0 0.00 0.00 0.00 78 1015.1
20260510140016 67 183 1.0 5.0 0.00 0.00 0.00 77 1017.2
20260510134541 66 192 1.0 4.0 0.00 0.00 0.00 77 1015.3
20260510133037 65 144 2.0 4.0 0.00 0.00 0.00 80 1015.3
20260510133016 65 139 1.0 4.0 0.00 0.00 0.00 80 1017.4
20260510131532 63 134 1.0 3.0 0.00 0.00 0.00 81 1015.1
20260510130041 62 134 0.0 4.0 0.00 0.00 0.00 83 1015.1
20260510130016 62 120 1.0 4.0 0.00 0.00 0.00 83 1017.1
20260510124526 60 101 1.0 3.0 0.00 0.00 0.00 86 1015.0
20260510123021 58 104 0.0 2.0 0.00 0.00 0.00 89 1016.9
20260510121515 56 101 0.0 0.0 0.00 0.00 0.00 93 1014.6
20260510120025 54 101 0.0 0.0 0.00 0.00 0.00 94 1014.5
20260510120016 54 104 0.0 3.0 0.00 0.00 0.00 94 1016.4
20260510114515 53 101 0.0 2.0 0.00 0.00 0.00 93 1014.4
20260510113016 52 103 0.0 4.0 0.00 0.00 0.00 94 1015.9
20260510113008 52 101 0.0 0.0 0.00 0.00 0.00 94 1014.0
20260510111506 51 101 1.0 3.0 0.00 0.00 0.00 93 1013.9
20260510110016 51 19 0.0 11.0 0.00 0.00 0.00 93 1015.8
20260510110007 51 100 1.0 3.0 0.00 0.00 0.00 93 1013.9
20260510104501 51 1 0.0 2.0 0.00 0.00 0.00 92 1013.9
20260510103100 52 1 0.0 4.0 0.00 0.00 0.00 92 1013.8
20260510103016 52 7 1.0 11.0 0.00 0.00 0.00 92 1015.9
20260510101558 52 12 0.0 10.0 0.00 0.00 0.00 92 1013.7
20260510100101 52 193 0.0 0.0 0.00 0.00 0.00 92 1013.2
20260510100016 52 0.0 0.0 0.00 0.00 0.00 92 1015.1
20260510094553 52 193 0.0 0.0 0.00 0.00 0.00 92 1012.8
20260510093054 52 193 0.0 0.0 0.00 0.00 0.00 92 1012.8
20260510093016 52 0.0 0.0 0.00 0.00 0.00 92 1014.7
20260510091550 52 193 0.0 0.0 0.00 0.00 0.00 92 1012.6
20260510090048 53 193 0.0 0.0 0.00 0.00 0.00 91 1012.5
20260510090021 53 0.0 0.0 0.00 0.00 0.00 91 1014.5
20260510084546 53 193 0.0 0.0 0.00 0.00 0.00 91 1012.3
20260510083057 53 193 0.0 0.0 0.00 0.00 0.00 91 1012.2
20260510083036 53 0.0 0.0 0.00 0.00 0.00 91 1014.2
20260510081543 53 193 0.0 0.0 0.00 0.00 0.00 91 1012.0
20260510080041 53 193 0.0 0.0 0.00 0.00 0.00 90 1011.9
20260510080036 53 0.0 0.0 0.00 0.00 0.00 90 1013.9
20260510074541 53 193 0.0 0.0 0.00 0.00 0.00 90 1012.0
20260510073040 54 193 0.0 0.0 0.00 0.00 0.00 89 1012.0
20260510073015 54 0.0 0.0 0.00 0.00 0.00 89 1014.0
20260510071540 54 193 0.0 0.0 0.00 0.00 0.00 89 1012.0
20260510070037 54 193 0.0 0.0 0.00 0.00 0.00 89 1011.7
20260510070016 54 0.0 0.0 0.00 0.00 0.00 89 1013.7
20260510064539 54 193 0.0 0.0 0.00 0.00 0.00 89 1011.6
20260510063035 55 193 0.0 0.0 0.00 0.00 0.00 88 1011.8
20260510063015 55 0.0 0.0 0.00 0.00 0.00 88 1013.7
20260510061533 55 193 0.0 0.0 0.00 0.00 0.00 88 1011.8
20260510060035 55 193 0.0 0.0 0.00 0.00 0.00 87 1011.8
20260510060015 55 0.0 0.0 0.00 0.00 0.00 86 1013.6
20260510054531 56 193 0.0 0.0 0.00 0.00 0.00 86 1011.6
20260510053041 56 0.0 0.0 0.00 0.00 0.00 86 1013.5
20260510053029 56 193 0.0 0.0 0.00 0.00 0.00 86 1011.6
20260510051527 56 193 0.0 0.0 0.00 0.00 0.00 86 1011.5
20260510050024 56 193 0.0 0.0 0.00 0.00 0.00 86 1011.5
20260510050015 56 0.0 0.0 0.00 0.00 0.00 86 1013.5
20260510044525 56 193 0.0 0.0 0.00 0.00 0.00 86 1011.5
20260510043024 57 193 0.0 0.0 0.00 0.00 0.00 86 1011.4
20260510043015 56 0.0 0.0 0.00 0.00 0.00 86 1013.4
20260510041523 57 193 0.0 0.0 0.00 0.00 0.00 86 1011.5
20260510040023 57 193 0.0 0.0 0.00 0.00 0.00 86 1011.6
20260510040015 57 0.0 0.0 0.00 0.00 0.00 86 1013.5
20260510034527 57 193 0.0 0.0 0.00 0.00 0.00 85 1011.5
20260510033024 58 193 0.0 0.0 0.00 0.00 0.00 85 1011.5
20260510033015 58 0.0 0.0 0.00 0.00 0.00 85 1013.4
20260510031523 59 193 0.0 0.0 0.00 0.00 0.00 84 1011.7
20260510030024 59 193 0.0 0.0 0.00 0.00 0.00 82 1011.5
20260510030015 59 0.0 0.0 0.00 0.00 0.00 82 1013.4
20260510024519 60 193 0.0 0.0 0.00 0.00 0.00 81 1011.4
20260510023018 61 193 0.0 0.0 0.00 0.00 0.00 80 1011.3
20260510023015 61 0.0 0.0 0.00 0.00 0.00 80 1013.2
20260510021523 62 193 0.0 0.0 0.00 0.00 0.00 77 1011.2
20260510020040 63 0.0 0.0 0.00 0.00 0.00 75 1012.9
20260510020014 63 193 0.0 0.0 0.00 0.00 0.00 75 1011.0
20260510014512 64 193 0.0 0.0 0.00 0.00 0.00 74 1010.7
20260510013015 66 0.0 0.0 0.00 0.00 0.00 71 1012.3
20260510013011 66 193 0.0 0.0 0.00 0.00 0.00 71 1010.5
20260510011511 68 193 0.0 0.0 0.00 0.00 0.00 68 1010.3
20260510010015 70 0.0 4.0 0.00 0.00 0.00 65 1012.0
20260510010009 70 193 0.0 0.0 0.00 0.00 0.00 65 1010.1
20260510004508 72 193 0.0 0.0 0.00 0.00 0.00 62 1010.0
20260510003015 74 192 0.0 4.0 0.00 0.00 0.00 58 1011.8
20260510003006 74 193 0.0 0.0 0.00 0.00 0.00 58 1009.8
20260510001504 76 193 0.0 2.0 0.00 0.00 0.00 55 1009.6
20260510000017 77 192 0.0 4.0 0.00 0.00 0.00 50 1011.6
20260510000007 77 193 1.0 3.0 0.00 0.00 0.00 50 1009.6
20260509234506 79 193 0.0 0.0 0.00 0.00 0.00 45 1009.3
20260509233017 79 192 1.0 4.0 0.00 0.00 0.00 43 1011.7
20260509233003 79 193 0.0 4.0 0.00 0.00 0.00 43 1009.3
20260509231604 80 193 1.0 4.0 0.00 0.00 0.00 41 1009.3